owner,sensor,date,latitude,longitude,vertical_datum,sea_water_practical_salinity,qcFlag 
ENP,ioos.station.NOAA.NDBC:BOBF1:1,2017-01-01T00:00:00Z,25.0270,-80.6810,1.5,30.42,1111122 
ENP,ioos.station.NOAA.NDBC:BOBF1:1,2017-01-01T02:00:00Z,25.0270,-80.6810,1.5,30.35,1111122 
ENP,ioos.station.NOAA.NDBC:BOBF1:1,2017-01-01T04:00:00Z,25.0270,-80.6810,1.5,30.35,1111122 
ENP,ioos.station.NOAA.NDBC:BOBF1:1,2017-01-01T05:00:00Z,25.0270,-80.6810,1.5,30.42,1111122 
ENP,ioos.station.NOAA.NDBC:BOBF1:1,2017-01-01T07:00:00Z,25.0270,-80.6810,1.5,30.42,1111122 
ENP,ioos.station.NOAA.NDBC:BOBF1:1,2017-01-01T08:00:00Z,25.0270,-80.6810,1.5,30.42,1111122 
ENP,ioos.station.NOAA.NDBC:BOBF1:1,2017-01-01T09:00:00Z,25.0270,-80.6810,1.5,30.5,1111122 
ENP,ioos.station.NOAA.NDBC:BOBF1:1,2017-01-01T10:00:00Z,25.0270,-80.6810,1.5,30.5,1111122 
ENP,ioos.station.NOAA.NDBC:BOBF1:1,2017-01-01T12:00:00Z,25.0270,-80.6810,1.5,30.64,1111122 
ENP,ioos.station.NOAA.NDBC:BOBF1:1,2017-01-01T13:00:00Z,25.0270,-80.6810,1.5,30.64,1111122 
ENP,ioos.station.NOAA.NDBC:BOBF1:1,2017-01-02T00:00:00Z,25.0270,-80.6810,1.5,31.44,1111122 
ENP,ioos.station.NOAA.NDBC:BOBF1:1,2017-01-02T04:00:00Z,25.0270,-80.6810,1.5,31.22,1111122 
ENP,ioos.station.NOAA.NDBC:BOBF1:1,2017-01-02T07:00:00Z,25.0270,-80.6810,1.5,31.87,1111122 
ENP,ioos.station.NOAA.NDBC:BOBF1:1,2017-01-02T11:00:00Z,25.0270,-80.6810,1.5,32.09,1111122 
ENP,ioos.station.NOAA.NDBC:BOBF1:1,2017-01-02T17:00:00Z,25.0270,-80.6810,1.5,31.44,1111122 
ENP,ioos.station.NOAA.NDBC:BOBF1:1,2017-01-02T22:00:00Z,25.0270,-80.6810,1.5,31.58,1111122 
ENP,ioos.station.NOAA.NDBC:BOBF1:1,2017-01-03T00:00:00Z,25.0270,-80.6810,1.5,31.51,1111122 
ENP,ioos.station.NOAA.NDBC:BOBF1:1,2017-01-03T02:00:00Z,25.0270,-80.6810,1.5,31.44,1111122 
ENP,ioos.station.NOAA.NDBC:BOBF1:1,2017-01-03T05:00:00Z,25.0270,-80.6810,1.5,31.15,1111122 
ENP,ioos.station.NOAA.NDBC:BOBF1:1,2017-01-03T20:00:00Z,25.0270,-80.6810,1.5,31.51,1111122 
ENP,ioos.station.NOAA.NDBC:BOBF1:1,2017-01-03T21:00:00Z,25.0270,-80.6810,1.5,31.73,1111122 
ENP,ioos.station.NOAA.NDBC:BOBF1:1,2017-01-03T23:00:00Z,25.0270,-80.6810,1.5,31.95,1111122 
ENP,ioos.station.NOAA.NDBC:BOBF1:1,2017-01-04T00:00:00Z,25.0270,-80.6810,1.5,32.02,1111122 
ENP,ioos.station.NOAA.NDBC:BOBF1:1,2017-01-04T01:00:00Z,25.0270,-80.6810,1.5,31.8,1111122 
ENP,ioos.station.NOAA.NDBC:BOBF1:1,2017-01-04T04:00:00Z,25.0270,-80.6810,1.5,31.44,1111122 
ENP,ioos.station.NOAA.NDBC:BOBF1:1,2017-01-04T07:00:00Z,25.0270,-80.6810,1.5,31.66,1111122 
ENP,ioos.station.NOAA.NDBC:BOBF1:1,2017-01-04T11:00:00Z,25.0270,-80.6810,1.5,32.38,1111122 
ENP,ioos.station.NOAA.NDBC:BOBF1:1,2017-01-04T16:00:00Z,25.0270,-80.6810,1.5,32.02,1111122 
ENP,ioos.station.NOAA.NDBC:BOBF1:1,2017-01-04T20:00:00Z,25.0270,-80.6810,1.5,32.02,1111122 
ENP,ioos.station.NOAA.NDBC:BOBF1:1,2017-01-04T21:00:00Z,25.0270,-80.6810,1.5,32.02,1111122 
ENP,ioos.station.NOAA.NDBC:BOBF1:1,2017-01-04T22:00:00Z,25.0270,-80.6810,1.5,32.09,1111122 
ENP,ioos.station.NOAA.NDBC:BOBF1:1,2017-01-05T00:00:00Z,25.0270,-80.6810,1.5,32.09,1111122 
ENP,ioos.station.NOAA.NDBC:BOBF1:1,2017-01-05T07:00:00Z,25.0270,-80.6810,1.5,31.73,1111122 
ENP,ioos.station.NOAA.NDBC:BOBF1:1,2017-01-05T10:00:00Z,25.0270,-80.6810,1.5,31.95,1111122 
ENP,ioos.station.NOAA.NDBC:BOBF1:1,2017-01-05T11:00:00Z,25.0270,-80.6810,1.5,31.95,1111122 
ENP,ioos.station.NOAA.NDBC:BOBF1:1,2017-01-05T15:00:00Z,25.0270,-80.6810,1.5,31.44,1111122 
ENP,ioos.station.NOAA.NDBC:BOBF1:1,2017-01-05T17:00:00Z,25.0270,-80.6810,1.5,31.37,1111122 
ENP,ioos.station.NOAA.NDBC:BOBF1:1,2017-01-05T18:00:00Z,25.0270,-80.6810,1.5,31.29,1111122 
ENP,ioos.station.NOAA.NDBC:BOBF1:1,2017-01-05T22:00:00Z,25.0270,-80.6810,1.5,31.51,1111122 
ENP,ioos.station.NOAA.NDBC:BOBF1:1,2017-01-05T23:00:00Z,25.0270,-80.6810,1.5,31.66,1111122 
ENP,ioos.station.NOAA.NDBC:BOBF1:1,2017-01-06T00:00:00Z,25.0270,-80.6810,1.5,31.73,1111122 
ENP,ioos.station.NOAA.NDBC:BOBF1:1,2017-01-06T02:00:00Z,25.0270,-80.6810,1.5,31.73,1111122 
ENP,ioos.station.NOAA.NDBC:BOBF1:1,2017-01-06T04:00:00Z,25.0270,-80.6810,1.5,31.51,1111122 
ENP,ioos.station.NOAA.NDBC:BOBF1:1,2017-01-06T07:00:00Z,25.0270,-80.6810,1.5,31.44,1111122 
ENP,ioos.station.NOAA.NDBC:BOBF1:1,2017-01-06T09:00:00Z,25.0270,-80.6810,1.5,31.44,1111122 
ENP,ioos.station.NOAA.NDBC:BOBF1:1,2017-01-06T11:00:00Z,25.0270,-80.6810,1.5,31.44,1111122 
ENP,ioos.station.NOAA.NDBC:BOBF1:1,2017-01-06T22:00:00Z,25.0270,-80.6810,1.5,31.44,1111122 
ENP,ioos.station.NOAA.NDBC:BOBF1:1,2017-01-06T23:00:00Z,25.0270,-80.6810,1.5,31.66,1111122 
ENP,ioos.station.NOAA.NDBC:BOBF1:1,2017-01-07T01:00:00Z,25.0270,-80.6810,1.5,31.87,1111122 
ENP,ioos.station.NOAA.NDBC:BOBF1:1,2017-01-07T05:00:00Z,25.0270,-80.6810,1.5,31.8,1111122 
ENP,ioos.station.NOAA.NDBC:BOBF1:1,2017-01-07T08:00:00Z,25.0270,-80.6810,1.5,32.02,1111122 
ENP,ioos.station.NOAA.NDBC:BOBF1:1,2017-01-07T09:00:00Z,25.0270,-80.6810,1.5,32.17,1111122 
ENP,ioos.station.NOAA.NDBC:BOBF1:1,2017-01-07T10:00:00Z,25.0270,-80.6810,1.5,31.95,1111122 
ENP,ioos.station.NOAA.NDBC:BOBF1:1,2017-01-07T12:00:00Z,25.0270,-80.6810,1.5,32.02,1111122 
ENP,ioos.station.NOAA.NDBC:BOBF1:1,2017-01-07T13:00:00Z,25.0270,-80.6810,1.5,32.09,1111122 
ENP,ioos.station.NOAA.NDBC:BOBF1:1,2017-01-07T23:00:00Z,25.0270,-80.6810,1.5,31.95,1111122 
ENP,ioos.station.NOAA.NDBC:BOBF1:1,2017-01-08T02:00:00Z,25.0270,-80.6810,1.5,31.08,1111122 
ENP,ioos.station.NOAA.NDBC:BOBF1:1,2017-01-08T05:00:00Z,25.0270,-80.6810,1.5,31.22,1111122 
ENP,ioos.station.NOAA.NDBC:BOBF1:1,2017-01-08T08:00:00Z,25.0270,-80.6810,1.5,31.44,1111122 
ENP,ioos.station.NOAA.NDBC:BOBF1:1,2017-01-08T09:00:00Z,25.0270,-80.6810,1.5,31.51,1111122 
ENP,ioos.station.NOAA.NDBC:BOBF1:1,2017-01-08T10:00:00Z,25.0270,-80.6810,1.5,31.51,1111122 
ENP,ioos.station.NOAA.NDBC:BOBF1:1,2017-01-08T12:00:00Z,25.0270,-80.6810,1.5,31.08,1111122 
ENP,ioos.station.NOAA.NDBC:BOBF1:1,2017-01-08T14:00:00Z,25.0270,-80.6810,1.5,30.93,1111122 
ENP,ioos.station.NOAA.NDBC:BOBF1:1,2017-01-08T16:00:00Z,25.0270,-80.6810,1.5,30.93,1111122 
ENP,ioos.station.NOAA.NDBC:BOBF1:1,2017-01-08T17:00:00Z,25.0270,-80.6810,1.5,30.86,1111122 
ENP,ioos.station.NOAA.NDBC:BOBF1:1,2017-01-08T18:00:00Z,25.0270,-80.6810,1.5,30.79,1111122 
ENP,ioos.station.NOAA.NDBC:BOBF1:1,2017-01-08T19:00:00Z,25.0270,-80.6810,1.5,30.79,1111122 
ENP,ioos.station.NOAA.NDBC:BOBF1:1,2017-01-08T21:00:00Z,25.0270,-80.6810,1.5,30.71,1111122 
ENP,ioos.station.NOAA.NDBC:BOBF1:1,2017-01-08T23:00:00Z,25.0270,-80.6810,1.5,30.57,1111122 
ENP,ioos.station.NOAA.NDBC:BOBF1:1,2017-01-09T00:00:00Z,25.0270,-80.6810,1.5,30.5,1111122 
ENP,ioos.station.NOAA.NDBC:BOBF1:1,2017-01-09T02:00:00Z,25.0270,-80.6810,1.5,30.5,1111122 
ENP,ioos.station.NOAA.NDBC:BOBF1:1,2017-01-09T04:00:00Z,25.0270,-80.6810,1.5,30.57,1111122 
ENP,ioos.station.NOAA.NDBC:BOBF1:1,2017-01-09T08:00:00Z,25.0270,-80.6810,1.5,30.64,1111122 
ENP,ioos.station.NOAA.NDBC:BOBF1:1,2017-01-09T09:00:00Z,25.0270,-80.6810,1.5,30.64,1111122 
ENP,ioos.station.NOAA.NDBC:BOBF1:1,2017-01-09T11:00:00Z,25.0270,-80.6810,1.5,30.64,1111122 
ENP,ioos.station.NOAA.NDBC:BOBF1:1,2017-01-09T13:00:00Z,25.0270,-80.6810,1.5,30.71,1111122 
ENP,ioos.station.NOAA.NDBC:BOBF1:1,2017-01-09T18:00:00Z,25.0270,-80.6810,1.5,30.64,1111122 
ENP,ioos.station.NOAA.NDBC:BOBF1:1,2017-01-09T19:00:00Z,25.0270,-80.6810,1.5,30.64,1111122 
ENP,ioos.station.NOAA.NDBC:BOBF1:1,2017-01-09T20:00:00Z,25.0270,-80.6810,1.5,30.64,1111122 
ENP,ioos.station.NOAA.NDBC:BOBF1:1,2017-01-09T21:00:00Z,25.0270,-80.6810,1.5,30.57,1111122 
ENP,ioos.station.NOAA.NDBC:BOBF1:1,2017-01-09T22:00:00Z,25.0270,-80.6810,1.5,30.57,1111122 
ENP,ioos.station.NOAA.NDBC:BOBF1:1,2017-01-10T00:00:00Z,25.0270,-80.6810,1.5,30.57,1111122 
ENP,ioos.station.NOAA.NDBC:BOBF1:1,2017-01-10T04:00:00Z,25.0270,-80.6810,1.5,30.71,1111122 
ENP,ioos.station.NOAA.NDBC:BOBF1:1,2017-01-10T05:00:00Z,25.0270,-80.6810,1.5,30.71,1111122 
ENP,ioos.station.NOAA.NDBC:BOBF1:1,2017-01-10T07:00:00Z,25.0270,-80.6810,1.5,30.71,1111122 
ENP,ioos.station.NOAA.NDBC:BOBF1:1,2017-01-10T12:00:00Z,25.0270,-80.6810,1.5,30.42,1111122 
ENP,ioos.station.NOAA.NDBC:BOBF1:1,2017-01-10T13:00:00Z,25.0270,-80.6810,1.5,30.57,1111122 
ENP,ioos.station.NOAA.NDBC:BOBF1:1,2017-01-10T14:00:00Z,25.0270,-80.6810,1.5,30.79,1111122 
ENP,ioos.station.NOAA.NDBC:BOBF1:1,2017-01-10T15:00:00Z,25.0270,-80.6810,1.5,30.71,1111122 
ENP,ioos.station.NOAA.NDBC:BOBF1:1,2017-01-10T16:00:00Z,25.0270,-80.6810,1.5,30.79,1111122 
ENP,ioos.station.NOAA.NDBC:BOBF1:1,2017-01-10T17:00:00Z,25.0270,-80.6810,1.5,30.86,1111122 
ENP,ioos.station.NOAA.NDBC:BOBF1:1,2017-01-10T18:00:00Z,25.0270,-80.6810,1.5,30.86,1111122 
ENP,ioos.station.NOAA.NDBC:BOBF1:1,2017-01-10T19:00:00Z,25.0270,-80.6810,1.5,30.93,1111122 
ENP,ioos.station.NOAA.NDBC:BOBF1:1,2017-01-11T00:00:00Z,25.0270,-80.6810,1.5,30.28,1111122 
ENP,ioos.station.NOAA.NDBC:BOBF1:1,2017-01-11T04:00:00Z,25.0270,-80.6810,1.5,31.0,1111122 
ENP,ioos.station.NOAA.NDBC:BOBF1:1,2017-01-11T07:00:00Z,25.0270,-80.6810,1.5,31.22,1111122 
ENP,ioos.station.NOAA.NDBC:BOBF1:1,2017-01-11T12:00:00Z,25.0270,-80.6810,1.5,30.79,1111122 
ENP,ioos.station.NOAA.NDBC:BOBF1:1,2017-01-11T17:00:00Z,25.0270,-80.6810,1.5,31.44,1111122 
ENP,ioos.station.NOAA.NDBC:BOBF1:1,2017-01-11T18:00:00Z,25.0270,-80.6810,1.5,31.44,1111122 
ENP,ioos.station.NOAA.NDBC:BOBF1:1,2017-01-11T19:00:00Z,25.0270,-80.6810,1.5,31.37,1111122 
ENP,ioos.station.NOAA.NDBC:BOBF1:1,2017-01-11T20:00:00Z,25.0270,-80.6810,1.5,31.08,1111122 
ENP,ioos.station.NOAA.NDBC:BOBF1:1,2017-01-11T21:00:00Z,25.0270,-80.6810,1.5,30.86,1111122 
ENP,ioos.station.NOAA.NDBC:BOBF1:1,2017-01-11T22:00:00Z,25.0270,-80.6810,1.5,30.71,1111122 
ENP,ioos.station.NOAA.NDBC:BOBF1:1,2017-01-11T23:00:00Z,25.0270,-80.6810,1.5,30.64,1111122 
ENP,ioos.station.NOAA.NDBC:BOBF1:1,2017-01-12T00:00:00Z,25.0270,-80.6810,1.5,30.64,1111122 
ENP,ioos.station.NOAA.NDBC:BOBF1:1,2017-01-12T05:00:00Z,25.0270,-80.6810,1.5,32.09,1111122 
ENP,ioos.station.NOAA.NDBC:BOBF1:1,2017-01-12T07:00:00Z,25.0270,-80.6810,1.5,32.17,1111122 
ENP,ioos.station.NOAA.NDBC:BOBF1:1,2017-01-12T12:00:00Z,25.0270,-80.6810,1.5,31.08,1111122 
ENP,ioos.station.NOAA.NDBC:BOBF1:1,2017-01-12T14:00:00Z,25.0270,-80.6810,1.5,30.93,1111122 
ENP,ioos.station.NOAA.NDBC:BOBF1:1,2017-01-12T15:00:00Z,25.0270,-80.6810,1.5,30.93,1111122 
ENP,ioos.station.NOAA.NDBC:BOBF1:1,2017-01-12T16:00:00Z,25.0270,-80.6810,1.5,31.22,1111122 
ENP,ioos.station.NOAA.NDBC:BOBF1:1,2017-01-12T19:00:00Z,25.0270,-80.6810,1.5,31.58,1111122 
ENP,ioos.station.NOAA.NDBC:BOBF1:1,2017-01-13T00:00:00Z,25.0270,-80.6810,1.5,30.93,1111122 
ENP,ioos.station.NOAA.NDBC:BOBF1:1,2017-01-13T04:00:00Z,25.0270,-80.6810,1.5,31.87,1111122 
ENP,ioos.station.NOAA.NDBC:BOBF1:1,2017-01-13T08:00:00Z,25.0270,-80.6810,1.5,32.46,1111122 
ENP,ioos.station.NOAA.NDBC:BOBF1:1,2017-01-17T13:00:00Z,25.0270,-80.6810,1.5,31.08,1111122 
ENP,ioos.station.NOAA.NDBC:BOBF1:1,2017-01-17T19:00:00Z,25.0270,-80.6810,1.5,30.64,1111122 
ENP,ioos.station.NOAA.NDBC:BOBF1:1,2017-01-17T20:00:00Z,25.0270,-80.6810,1.5,31.51,1111122 
ENP,ioos.station.NOAA.NDBC:BOBF1:1,2017-01-17T21:00:00Z,25.0270,-80.6810,1.5,31.51,1111122 
ENP,ioos.station.NOAA.NDBC:BOBF1:1,2017-01-17T22:00:00Z,25.0270,-80.6810,1.5,31.58,1111122 
ENP,ioos.station.NOAA.NDBC:BOBF1:1,2017-01-17T23:00:00Z,25.0270,-80.6810,1.5,31.73,1111122 
ENP,ioos.station.NOAA.NDBC:BOBF1:1,2017-01-18T00:00:00Z,25.0270,-80.6810,1.5,31.73,1111122 
ENP,ioos.station.NOAA.NDBC:BOBF1:1,2017-01-18T02:00:00Z,25.0270,-80.6810,1.5,31.08,1111122 
ENP,ioos.station.NOAA.NDBC:BOBF1:1,2017-01-18T05:00:00Z,25.0270,-80.6810,1.5,31.15,1111122 
ENP,ioos.station.NOAA.NDBC:BOBF1:1,2017-01-18T08:00:00Z,25.0270,-80.6810,1.5,31.58,1111122 
ENP,ioos.station.NOAA.NDBC:BOBF1:1,2017-01-18T09:00:00Z,25.0270,-80.6810,1.5,31.66,1111122 
ENP,ioos.station.NOAA.NDBC:BOBF1:1,2017-01-18T10:00:00Z,25.0270,-80.6810,1.5,31.73,1111122 
ENP,ioos.station.NOAA.NDBC:BOBF1:1,2017-01-18T11:00:00Z,25.0270,-80.6810,1.5,31.8,1111122 
ENP,ioos.station.NOAA.NDBC:BOBF1:1,2017-01-18T14:00:00Z,25.0270,-80.6810,1.5,31.58,1111122 
ENP,ioos.station.NOAA.NDBC:BOBF1:1,2017-01-18T15:00:00Z,25.0270,-80.6810,1.5,31.37,1111122 
ENP,ioos.station.NOAA.NDBC:BOBF1:1,2017-01-18T16:00:00Z,25.0270,-80.6810,1.5,31.29,1111122 
ENP,ioos.station.NOAA.NDBC:BOBF1:1,2017-01-18T19:00:00Z,25.0270,-80.6810,1.5,31.22,1111122 
ENP,ioos.station.NOAA.NDBC:BOBF1:1,2017-01-18T21:00:00Z,25.0270,-80.6810,1.5,31.44,1111122 
ENP,ioos.station.NOAA.NDBC:BOBF1:1,2017-01-18T22:00:00Z,25.0270,-80.6810,1.5,31.58,1111122 
ENP,ioos.station.NOAA.NDBC:BOBF1:1,2017-01-19T00:00:00Z,25.0270,-80.6810,1.5,31.37,1111122 
ENP,ioos.station.NOAA.NDBC:BOBF1:1,2017-01-19T04:00:00Z,25.0270,-80.6810,1.5,31.22,1111122 
ENP,ioos.station.NOAA.NDBC:BOBF1:1,2017-01-19T07:00:00Z,25.0270,-80.6810,1.5,31.22,1111122 
ENP,ioos.station.NOAA.NDBC:BOBF1:1,2017-01-19T10:00:00Z,25.0270,-80.6810,1.5,31.29,1111122 
ENP,ioos.station.NOAA.NDBC:BOBF1:1,2017-01-19T12:00:00Z,25.0270,-80.6810,1.5,31.8,1111122 
ENP,ioos.station.NOAA.NDBC:BOBF1:1,2017-01-19T14:00:00Z,25.0270,-80.6810,1.5,31.58,1111122 
ENP,ioos.station.NOAA.NDBC:BOBF1:1,2017-01-19T15:00:00Z,25.0270,-80.6810,1.5,31.29,1111122 
ENP,ioos.station.NOAA.NDBC:BOBF1:1,2017-01-19T16:00:00Z,25.0270,-80.6810,1.5,31.29,1111122 
ENP,ioos.station.NOAA.NDBC:BOBF1:1,2017-01-19T17:00:00Z,25.0270,-80.6810,1.5,31.15,1111122 
ENP,ioos.station.NOAA.NDBC:BOBF1:1,2017-01-19T18:00:00Z,25.0270,-80.6810,1.5,31.15,1111122 
ENP,ioos.station.NOAA.NDBC:BOBF1:1,2017-01-19T19:00:00Z,25.0270,-80.6810,1.5,31.73,1111122 
ENP,ioos.station.NOAA.NDBC:BOBF1:1,2017-01-19T20:00:00Z,25.0270,-80.6810,1.5,32.24,1111122 
ENP,ioos.station.NOAA.NDBC:BOBF1:1,2017-01-19T21:00:00Z,25.0270,-80.6810,1.5,32.38,1111122 
ENP,ioos.station.NOAA.NDBC:BOBF1:1,2017-01-19T22:00:00Z,25.0270,-80.6810,1.5,32.31,1111122 
ENP,ioos.station.NOAA.NDBC:BOBF1:1,2017-01-19T23:00:00Z,25.0270,-80.6810,1.5,32.38,1111122 
ENP,ioos.station.NOAA.NDBC:BOBF1:1,2017-01-20T02:00:00Z,25.0270,-80.6810,1.5,32.53,1111122 
ENP,ioos.station.NOAA.NDBC:BOBF1:1,2017-01-20T04:00:00Z,25.0270,-80.6810,1.5,32.6,1111122 
ENP,ioos.station.NOAA.NDBC:BOBF1:1,2017-01-20T07:00:00Z,25.0270,-80.6810,1.5,32.6,1111122 
ENP,ioos.station.NOAA.NDBC:BOBF1:1,2017-01-20T09:00:00Z,25.0270,-80.6810,1.5,32.6,1111122 
ENP,ioos.station.NOAA.NDBC:BOBF1:1,2017-01-20T12:00:00Z,25.0270,-80.6810,1.5,32.6,1111122 
ENP,ioos.station.NOAA.NDBC:BOBF1:1,2017-01-20T14:00:00Z,25.0270,-80.6810,1.5,32.53,1111122 
ENP,ioos.station.NOAA.NDBC:BOBF1:1,2017-01-20T15:00:00Z,25.0270,-80.6810,1.5,32.02,1111122 
ENP,ioos.station.NOAA.NDBC:BOBF1:1,2017-01-20T16:00:00Z,25.0270,-80.6810,1.5,31.87,1111122 
ENP,ioos.station.NOAA.NDBC:BOBF1:1,2017-01-20T21:00:00Z,25.0270,-80.6810,1.5,32.38,1111122 
ENP,ioos.station.NOAA.NDBC:BOBF1:1,2017-01-21T00:00:00Z,25.0270,-80.6810,1.5,32.31,1111122 
ENP,ioos.station.NOAA.NDBC:BOBF1:1,2017-01-21T01:00:00Z,25.0270,-80.6810,1.5,32.31,1111122 
ENP,ioos.station.NOAA.NDBC:BOBF1:1,2017-01-21T02:00:00Z,25.0270,-80.6810,1.5,32.38,1111122 
ENP,ioos.station.NOAA.NDBC:BOBF1:1,2017-01-21T05:00:00Z,25.0270,-80.6810,1.5,32.38,1111122 
ENP,ioos.station.NOAA.NDBC:BOBF1:1,2017-01-21T08:00:00Z,25.0270,-80.6810,1.5,32.38,1111122 
ENP,ioos.station.NOAA.NDBC:BOBF1:1,2017-01-21T09:00:00Z,25.0270,-80.6810,1.5,32.38,1111122 
ENP,ioos.station.NOAA.NDBC:BOBF1:1,2017-01-21T10:00:00Z,25.0270,-80.6810,1.5,32.46,1111122 
ENP,ioos.station.NOAA.NDBC:BOBF1:1,2017-01-21T11:00:00Z,25.0270,-80.6810,1.5,32.46,1111122 
ENP,ioos.station.NOAA.NDBC:BOBF1:1,2017-01-21T13:00:00Z,25.0270,-80.6810,1.5,32.46,1111122 
ENP,ioos.station.NOAA.NDBC:BOBF1:1,2017-01-21T16:00:00Z,25.0270,-80.6810,1.5,32.46,1111122 
ENP,ioos.station.NOAA.NDBC:BOBF1:1,2017-01-21T20:00:00Z,25.0270,-80.6810,1.5,32.53,1111122 
ENP,ioos.station.NOAA.NDBC:BOBF1:1,2017-01-21T21:00:00Z,25.0270,-80.6810,1.5,32.46,1111122 
ENP,ioos.station.NOAA.NDBC:BOBF1:1,2017-01-22T04:00:00Z,25.0270,-80.6810,1.5,32.68,1111122 
ENP,ioos.station.NOAA.NDBC:BOBF1:1,2017-01-22T07:00:00Z,25.0270,-80.6810,1.5,32.75,1111122 
ENP,ioos.station.NOAA.NDBC:BOBF1:1,2017-01-22T12:00:00Z,25.0270,-80.6810,1.5,32.82,1111122 
ENP,ioos.station.NOAA.NDBC:BOBF1:1,2017-01-22T22:00:00Z,25.0270,-80.6810,1.5,33.63,1111122 
ENP,ioos.station.NOAA.NDBC:BOBF1:1,2017-01-22T23:00:00Z,25.0270,-80.6810,1.5,33.7,1111122 
ENP,ioos.station.NOAA.NDBC:BOBF1:1,2017-01-23T00:00:00Z,25.0270,-80.6810,1.5,33.85,1111122 
ENP,ioos.station.NOAA.NDBC:BOBF1:1,2017-01-23T01:00:00Z,25.0270,-80.6810,1.5,33.92,1111122 
ENP,ioos.station.NOAA.NDBC:BOBF1:1,2017-01-23T02:00:00Z,25.0270,-80.6810,1.5,33.92,1111122 
ENP,ioos.station.NOAA.NDBC:BOBF1:1,2017-01-23T07:00:00Z,25.0270,-80.6810,1.5,34.29,1111122 
ENP,ioos.station.NOAA.NDBC:BOBF1:1,2017-01-23T14:00:00Z,25.0270,-80.6810,1.5,35.99,1111122 
ENP,ioos.station.NOAA.NDBC:BOBF1:1,2017-01-23T15:00:00Z,25.0270,-80.6810,1.5,36.43,1111122 
ENP,ioos.station.NOAA.NDBC:BOBF1:1,2017-01-23T16:00:00Z,25.0270,-80.6810,1.5,36.8,1111122 
ENP,ioos.station.NOAA.NDBC:BOBF1:1,2017-01-23T17:00:00Z,25.0270,-80.6810,1.5,34.88,1111122 
ENP,ioos.station.NOAA.NDBC:BOBF1:1,2017-01-23T18:00:00Z,25.0270,-80.6810,1.5,34.95,1111122 
ENP,ioos.station.NOAA.NDBC:BOBF1:1,2017-01-23T19:00:00Z,25.0270,-80.6810,1.5,34.88,1111122 
ENP,ioos.station.NOAA.NDBC:BOBF1:1,2017-01-23T20:00:00Z,25.0270,-80.6810,1.5,34.88,1111122 
ENP,ioos.station.NOAA.NDBC:BOBF1:1,2017-01-23T21:00:00Z,25.0270,-80.6810,1.5,34.95,1111122 
ENP,ioos.station.NOAA.NDBC:BOBF1:1,2017-01-23T22:00:00Z,25.0270,-80.6810,1.5,35.25,1111122 
ENP,ioos.station.NOAA.NDBC:BOBF1:1,2017-01-24T00:00:00Z,25.0270,-80.6810,1.5,35.1,1111122 
ENP,ioos.station.NOAA.NDBC:BOBF1:1,2017-01-24T01:00:00Z,25.0270,-80.6810,1.5,34.58,1111122 
ENP,ioos.station.NOAA.NDBC:BOBF1:1,2017-01-24T04:00:00Z,25.0270,-80.6810,1.5,34.07,1111122 
ENP,ioos.station.NOAA.NDBC:BOBF1:1,2017-01-24T07:00:00Z,25.0270,-80.6810,1.5,33.26,1111122 
ENP,ioos.station.NOAA.NDBC:BOBF1:1,2017-01-24T10:00:00Z,25.0270,-80.6810,1.5,32.38,1111122 
ENP,ioos.station.NOAA.NDBC:BOBF1:1,2017-01-24T12:00:00Z,25.0270,-80.6810,1.5,32.24,1111122 
ENP,ioos.station.NOAA.NDBC:BOBF1:1,2017-01-24T15:00:00Z,25.0270,-80.6810,1.5,32.02,1111122 
ENP,ioos.station.NOAA.NDBC:BOBF1:1,2017-01-24T16:00:00Z,25.0270,-80.6810,1.5,31.95,1111122 
ENP,ioos.station.NOAA.NDBC:BOBF1:1,2017-01-24T17:00:00Z,25.0270,-80.6810,1.5,31.73,1111122 
ENP,ioos.station.NOAA.NDBC:BOBF1:1,2017-01-24T18:00:00Z,25.0270,-80.6810,1.5,31.58,1111122 
ENP,ioos.station.NOAA.NDBC:BOBF1:1,2017-01-24T19:00:00Z,25.0270,-80.6810,1.5,31.51,1111122 
ENP,ioos.station.NOAA.NDBC:BOBF1:1,2017-01-24T20:00:00Z,25.0270,-80.6810,1.5,31.51,1111122 
ENP,ioos.station.NOAA.NDBC:BOBF1:1,2017-01-24T21:00:00Z,25.0270,-80.6810,1.5,31.66,1111122 
ENP,ioos.station.NOAA.NDBC:BOBF1:1,2017-01-24T22:00:00Z,25.0270,-80.6810,1.5,32.24,1111122 
ENP,ioos.station.NOAA.NDBC:BOBF1:1,2017-01-24T23:00:00Z,25.0270,-80.6810,1.5,33.04,1111122 
ENP,ioos.station.NOAA.NDBC:BOBF1:1,2017-01-25T00:00:00Z,25.0270,-80.6810,1.5,33.04,1111122 
ENP,ioos.station.NOAA.NDBC:BOBF1:1,2017-01-25T01:00:00Z,25.0270,-80.6810,1.5,32.17,1111122 
ENP,ioos.station.NOAA.NDBC:BOBF1:1,2017-01-25T02:00:00Z,25.0270,-80.6810,1.5,32.17,1111122 
ENP,ioos.station.NOAA.NDBC:BOBF1:1,2017-01-25T05:00:00Z,25.0270,-80.6810,1.5,32.24,1111122 
ENP,ioos.station.NOAA.NDBC:BOBF1:1,2017-01-25T07:00:00Z,25.0270,-80.6810,1.5,32.24,1111122 
ENP,ioos.station.NOAA.NDBC:BOBF1:1,2017-01-25T08:00:00Z,25.0270,-80.6810,1.5,32.17,1111122 
ENP,ioos.station.NOAA.NDBC:BOBF1:1,2017-01-25T09:00:00Z,25.0270,-80.6810,1.5,32.17,1111122 
ENP,ioos.station.NOAA.NDBC:BOBF1:1,2017-01-25T10:00:00Z,25.0270,-80.6810,1.5,32.02,1111122 
ENP,ioos.station.NOAA.NDBC:BOBF1:1,2017-01-25T12:00:00Z,25.0270,-80.6810,1.5,31.58,1111122 
ENP,ioos.station.NOAA.NDBC:BOBF1:1,2017-01-25T13:00:00Z,25.0270,-80.6810,1.5,31.44,1111122 
ENP,ioos.station.NOAA.NDBC:BOBF1:1,2017-01-25T14:00:00Z,25.0270,-80.6810,1.5,31.66,1111122 
ENP,ioos.station.NOAA.NDBC:BOBF1:1,2017-01-25T15:00:00Z,25.0270,-80.6810,1.5,32.02,1111122 
ENP,ioos.station.NOAA.NDBC:BOBF1:1,2017-01-25T16:00:00Z,25.0270,-80.6810,1.5,31.44,1111122 
ENP,ioos.station.NOAA.NDBC:BOBF1:1,2017-01-25T17:00:00Z,25.0270,-80.6810,1.5,31.08,1111122 
ENP,ioos.station.NOAA.NDBC:BOBF1:1,2017-01-25T18:00:00Z,25.0270,-80.6810,1.5,30.93,1111122 
ENP,ioos.station.NOAA.NDBC:BOBF1:1,2017-01-25T19:00:00Z,25.0270,-80.6810,1.5,30.86,1111122 
ENP,ioos.station.NOAA.NDBC:BOBF1:1,2017-01-25T20:00:00Z,25.0270,-80.6810,1.5,30.86,1111122 
ENP,ioos.station.NOAA.NDBC:BOBF1:1,2017-01-25T21:00:00Z,25.0270,-80.6810,1.5,30.93,1111122 
ENP,ioos.station.NOAA.NDBC:BOBF1:1,2017-01-25T22:00:00Z,25.0270,-80.6810,1.5,31.08,1111122 
ENP,ioos.station.NOAA.NDBC:BOBF1:1,2017-01-25T23:00:00Z,25.0270,-80.6810,1.5,31.29,1111122 
ENP,ioos.station.NOAA.NDBC:BOBF1:1,2017-01-26T00:00:00Z,25.0270,-80.6810,1.5,31.15,1111122 
ENP,ioos.station.NOAA.NDBC:BOBF1:1,2017-01-26T01:00:00Z,25.0270,-80.6810,1.5,31.0,1111122 
ENP,ioos.station.NOAA.NDBC:BOBF1:1,2017-01-26T02:00:00Z,25.0270,-80.6810,1.5,31.0,1111122 
ENP,ioos.station.NOAA.NDBC:BOBF1:1,2017-01-26T05:00:00Z,25.0270,-80.6810,1.5,31.08,1111122 
ENP,ioos.station.NOAA.NDBC:BOBF1:1,2017-01-26T06:00:00Z,25.0270,-80.6810,1.5,31.08,1111122 
ENP,ioos.station.NOAA.NDBC:BOBF1:1,2017-01-26T08:00:00Z,25.0270,-80.6810,1.5,31.29,1111122 
ENP,ioos.station.NOAA.NDBC:BOBF1:1,2017-01-26T09:00:00Z,25.0270,-80.6810,1.5,31.58,1111122 
ENP,ioos.station.NOAA.NDBC:BOBF1:1,2017-01-26T10:00:00Z,25.0270,-80.6810,1.5,31.73,1111122 
ENP,ioos.station.NOAA.NDBC:BOBF1:1,2017-01-26T12:00:00Z,25.0270,-80.6810,1.5,31.73,1111122 
ENP,ioos.station.NOAA.NDBC:BOBF1:1,2017-01-26T13:00:00Z,25.0270,-80.6810,1.5,31.8,1111122 
ENP,ioos.station.NOAA.NDBC:BOBF1:1,2017-01-26T14:00:00Z,25.0270,-80.6810,1.5,31.58,1111122 
ENP,ioos.station.NOAA.NDBC:BOBF1:1,2017-01-26T15:00:00Z,25.0270,-80.6810,1.5,31.51,1111122 
ENP,ioos.station.NOAA.NDBC:BOBF1:1,2017-01-26T16:00:00Z,25.0270,-80.6810,1.5,31.58,1111122 
ENP,ioos.station.NOAA.NDBC:BOBF1:1,2017-01-26T18:00:00Z,25.0270,-80.6810,1.5,31.58,1111122 
ENP,ioos.station.NOAA.NDBC:BOBF1:1,2017-01-26T20:00:00Z,25.0270,-80.6810,1.5,31.66,1111122 
ENP,ioos.station.NOAA.NDBC:BOBF1:1,2017-01-26T22:00:00Z,25.0270,-80.6810,1.5,31.66,1111122 
ENP,ioos.station.NOAA.NDBC:BOBF1:1,2017-01-27T02:00:00Z,25.0270,-80.6810,1.5,31.66,1111122 
ENP,ioos.station.NOAA.NDBC:BOBF1:1,2017-01-27T04:00:00Z,25.0270,-80.6810,1.5,31.66,1111122 
ENP,ioos.station.NOAA.NDBC:BOBF1:1,2017-01-27T07:00:00Z,25.0270,-80.6810,1.5,31.73,1111122 
ENP,ioos.station.NOAA.NDBC:BOBF1:1,2017-01-27T11:00:00Z,25.0270,-80.6810,1.5,31.73,1111122 
ENP,ioos.station.NOAA.NDBC:BOBF1:1,2017-01-27T13:00:00Z,25.0270,-80.6810,1.5,31.73,1111122 
ENP,ioos.station.NOAA.NDBC:BOBF1:1,2017-01-27T15:00:00Z,25.0270,-80.6810,1.5,31.73,1111122 
ENP,ioos.station.NOAA.NDBC:BOBF1:1,2017-01-27T16:00:00Z,25.0270,-80.6810,1.5,31.73,1111122 
ENP,ioos.station.NOAA.NDBC:BOBF1:1,2017-01-27T18:00:00Z,25.0270,-80.6810,1.5,31.87,1111122 
ENP,ioos.station.NOAA.NDBC:BOBF1:1,2017-01-27T21:00:00Z,25.0270,-80.6810,1.5,31.66,1111122 
ENP,ioos.station.NOAA.NDBC:BOBF1:1,2017-01-27T22:00:00Z,25.0270,-80.6810,1.5,31.66,1111122 
ENP,ioos.station.NOAA.NDBC:BOBF1:1,2017-01-27T23:00:00Z,25.0270,-80.6810,1.5,31.73,1111122 
ENP,ioos.station.NOAA.NDBC:BOBF1:1,2017-01-28T00:00:00Z,25.0270,-80.6810,1.5,31.73,1111122 
ENP,ioos.station.NOAA.NDBC:BOBF1:1,2017-01-28T02:00:00Z,25.0270,-80.6810,1.5,31.73,1111122 
ENP,ioos.station.NOAA.NDBC:BOBF1:1,2017-01-28T05:00:00Z,25.0270,-80.6810,1.5,32.75,1111122 
ENP,ioos.station.NOAA.NDBC:BOBF1:1,2017-01-28T07:00:00Z,25.0270,-80.6810,1.5,32.38,1111122 
ENP,ioos.station.NOAA.NDBC:BOBF1:1,2017-01-28T10:00:00Z,25.0270,-80.6810,1.5,32.46,1111122 
ENP,ioos.station.NOAA.NDBC:BOBF1:1,2017-01-28T12:00:00Z,25.0270,-80.6810,1.5,32.09,1111122 
ENP,ioos.station.NOAA.NDBC:BOBF1:1,2017-01-28T13:00:00Z,25.0270,-80.6810,1.5,32.02,1111122 
ENP,ioos.station.NOAA.NDBC:BOBF1:1,2017-01-28T15:00:00Z,25.0270,-80.6810,1.5,31.87,1111122 
ENP,ioos.station.NOAA.NDBC:BOBF1:1,2017-01-28T16:00:00Z,25.0270,-80.6810,1.5,31.8,1111122 
ENP,ioos.station.NOAA.NDBC:BOBF1:1,2017-01-28T17:00:00Z,25.0270,-80.6810,1.5,31.8,1111122 